Location: �mondeville
(49.4591°N, 1.3431°W)
Time: 21:33:33
(UTC+00:00)

Cosmos 1943 Rocket - Pass Details

Date: 22 October 2019
Orbit: 810 x 845 km, 71.0° (Epoch: 14 November)

Event Time Altitude Azimuth Distance (km) Brightness Sun altitude
Rises 04:43:07 0° 333° (NNW) 3,410 5.1 -19.1°
Reaches altitude 10° 04:45:38 10° 338° (NNW) 2,474 4.5 -18.7°
Maximum altitude 04:51:12 54° 55° (NE) 1,020 2.9 -17.8°
Drops below altitude 10° 04:56:45 10° 133° (SE) 2,464 5.2 -16.9°
Sets 04:59:15 0° 138° (SE) 3,394 5.9 -16.5°
